Meteo Giornale » Osservazioni meteo Corea del Sud » Cheongdo Tmq-53P

ore: 15:10 - Osservazioni Meteo Cheongdo Tmq-53P
Lat. 35° 39' N Lon. 128° 43' E Alt. 111 metri s.l.m.

coperto

29 °C

Coperto

Temp. 24 Ore

22 °C

33 °C

Nord

1.8 Km/h

Dew point 23 °C

Umidità 70 %

Visibilità  10 Km

Il sole sorge alle ore 05:56

Il sole tramonta alle ore 18:53

Data e Ora Cielo e Fenomeni T °C DP °C Um. % Pres. hPa Vis. km Vento km/h
Oggi h: 15:10 coperto Coperto 29 23 70 1014 10 N 1.8
Oggi h: 15:00 molto_nuvoloso Molto Nuvoloso 30 23 66 1014 10 N 5.5
Oggi h: 14:50 molto_nuvoloso Molto Nuvoloso 29 23 70 1013 10 N 5.5
Oggi h: 14:40 molto_nuvoloso Molto Nuvoloso 30 22 62 1013 10 SE 7.4
Oggi h: 14:30 molto_nuvoloso Molto Nuvoloso 31 23 62 1013 10 E/SE 7.4
Oggi h: 14:20 molto_nuvoloso Molto Nuvoloso 31 23 62 1013 10 SE 9.3
Oggi h: 14:10 molto_nuvoloso Molto Nuvoloso 31 24 66 1013 10 N 3.7
Oggi h: 14:00 molto_nuvoloso Molto Nuvoloso 31 23 62 1013 10 SE 7.4
Oggi h: 13:50 molto_nuvoloso Molto Nuvoloso 30 24 70 1013 10 N 3.7
Oggi h: 13:40 molto_nuvoloso Molto Nuvoloso 31 24 66 1013 10 N 5.5
Oggi h: 13:30 molto_nuvoloso Molto Nuvoloso 32 23 59 1013 10 O/SO 7.4
Oggi h: 13:20 molto_nuvoloso Molto Nuvoloso 33 23 55 1013 10 N 3.7
Oggi h: 13:10 molto_nuvoloso Molto Nuvoloso 33 23 55 1013 10 N 3.7
Oggi h: 13:00 molto_nuvoloso Molto Nuvoloso 33 23 55 1013 10 N 1.8
Oggi h: 12:50 molto_nuvoloso Molto Nuvoloso 33 23 55 1013 10 N 3.7
Oggi h: 12:40 molto_nuvoloso Molto Nuvoloso 31 23 62 1013 10 SE 7.4
Oggi h: 12:30 nuvoloso Nuvoloso 32 23 59 1013 10 N 3.7
Oggi h: 12:20 nuvoloso Nuvoloso 33 23 55 1013 10 N 1.8
Oggi h: 12:10 nuvoloso Nuvoloso 31 23 62 1014 10 N 1.8
Oggi h: 12:00 molto_nuvoloso Molto Nuvoloso 30 23 66 1014 10 N 3.7
Oggi h: 11:50 molto_nuvoloso Molto Nuvoloso 31 23 62 1014 10 N 1.8
Oggi h: 11:40 molto_nuvoloso Molto Nuvoloso 31 23 62 1014 10 N 1.8
Oggi h: 11:30 nuvoloso Nuvoloso 31 23 62 1014 10 N 3.7
Oggi h: 11:20 nuvoloso Nuvoloso 31 23 62 1014 10 N 1.8
Oggi h: 11:10 molto_nuvoloso Molto Nuvoloso 31 23 62 1014 10 N 1.8
Oggi h: 11:00 molto_nuvoloso Molto Nuvoloso 30 23 66 1014 10 N 5.5
Oggi h: 10:50 molto_nuvoloso Molto Nuvoloso 30 23 66 1014 10 N 5.5
Oggi h: 10:40 molto_nuvoloso Molto Nuvoloso 30 23 66 1014 10 N 5.5
Oggi h: 10:30 molto_nuvoloso Molto Nuvoloso 30 23 66 1014 10 N 3.7
Oggi h: 10:20 molto_nuvoloso Molto Nuvoloso 30 23 66 1014 10 N 5.5
Oggi h: 10:10 nuvoloso Nuvoloso 30 23 66 1014 10 N 1.8
Oggi h: 10:00 poco_nuvoloso Poco Nuvoloso 29 24 74 1014 10 N 1.8
Oggi h: 09:50 nuvoloso Nuvoloso 27 24 83 1014 10 N 3.7
Oggi h: 09:40 nuvoloso Nuvoloso 27 24 83 1014 10 N 3.7
Oggi h: 09:30 nuvoloso Nuvoloso 27 24 83 1014 10 N 1.8
Oggi h: 09:20 poco_nuvoloso Poco Nuvoloso 26 24 88 1014 10 N 5.5
Oggi h: 09:10 poco_nuvoloso Poco Nuvoloso 26 24 88 1014 10 N 3.7
Oggi h: 09:00 nuvoloso Nuvoloso 26 25 94 1014 10 N 3.7
Oggi h: 08:50 molto_nuvoloso Molto Nuvoloso 25 25 100 1014 10 N 3.7
Oggi h: 08:40 coperto Coperto 25 24 94 1014 6 N 3.7
Oggi h: 08:30 nebbia Banco di nebbia 24 24 100 1015 2 N 5.5
Oggi h: 08:20 nebbia Banco di nebbia 23 23 100 1015 2 N 3.7
Oggi h: 08:10 foschia Foschia 23 23 100 1015 2 N 3.7
Oggi h: 08:00 nebbia Nebbia 23 23 100 1015 0.4 N 3.7
Oggi h: 07:50 nebbia Banco di nebbia 23 23 100 1015 0.4 N 3.7
Oggi h: 07:40 nebbia Banco di nebbia 23 23 100 1015 2 N 1.8
Oggi h: 07:30 foschia Foschia 23 23 100 1015 1 N 0
Oggi h: 07:20 nebbia Nebbia 23 23 100 1014 0.4 N 1.8
Oggi h: 07:10 nebbia Nebbia 23 23 100 1014 0 N 1.8
Oggi h: 07:00 nebbia Nebbia 23 23 100 1014 0 N 1.8
Oggi h: 06:50 nebbia Nebbia 23 23 100 1014 0.4 N 1.8
Oggi h: 06:40 nebbia Nebbia 23 23 100 1014 0.4 N 1.8
Oggi h: 06:30 nebbia Nebbia 23 23 100 1014 0 N 1.8
Oggi h: 06:20 nebbia Nebbia 23 23 100 1014 0 N 1.8
Oggi h: 06:10 nebbia Nebbia 23 23 100 1014 0 N 0
Oggi h: 06:00 nebbia Nebbia 23 23 100 1014 0 N 1.8
Oggi h: 05:50 nebbia Nebbia 23 23 100 1014 0 N 1.8
Oggi h: 05:40 nebbia Nebbia 23 23 100 1014 0 N 5.5
Oggi h: 05:30 nebbia Nebbia 23 23 100 1014 0 N 1.8
Oggi h: 05:20 nebbia Nebbia 22 22 100 1014 0 N 3.7
Oggi h: 05:10 nebbia Nebbia 22 22 100 1013 0 N 1.8
Oggi h: 05:00 nebbia Nebbia 22 22 100 1013 0 N 1.8
Oggi h: 04:50 nebbia Nebbia 22 22 100 1013 0 N 1.8
Oggi h: 04:40 nebbia Nebbia 22 22 100 1013 0 N 1.8
Oggi h: 04:30 nebbia Nebbia 23 23 100 1013 0 N 3.7
Oggi h: 04:20 nebbia Nebbia 23 23 100 1013 0.4 N 3.7
Oggi h: 04:10 nebbia Nebbia 23 23 100 1013 0 N 0
Oggi h: 04:00 foschia Foschia 23 23 100 1014 2 N 1.8
Oggi h: 03:50 foschia Foschia 23 23 100 1014 2 N 1.8
Oggi h: 03:40 nebbia Banco di nebbia 23 23 100 1014 3 N 5.5
Oggi h: 03:30 nebbia Banco di nebbia 23 23 100 1013 0.4 N 3.7
Oggi h: 03:20 nebbia Banco di nebbia 23 23 100 1013 9 N 1.8
Oggi h: 03:10 nebbia Banco di nebbia 23 23 100 1013 0.4 N 3.7
Oggi h: 03:00 nebbia Nebbia 23 23 100 1013 0.4 N 1.8
Oggi h: 02:50 nebbia Nebbia 23 23 100 1013 0.4 N 1.8
Oggi h: 02:40 poco_nuvoloso Poco Nuvoloso 23 23 100 1013 10 N 0
Oggi h: 02:30 poco_nuvoloso Poco Nuvoloso 23 23 100 1013 10 N 3.7
Oggi h: 02:20 nuvoloso Nuvoloso 24 24 100 1013 10 N 1.8
Oggi h: 02:10 molto_nuvoloso Molto Nuvoloso 23 23 100 1013 10 N 1.8
Oggi h: 02:00 nuvoloso Nuvoloso 24 24 100 1013 10 N 1.8
Oggi h: 01:50 poco_nuvoloso Poco Nuvoloso 23 23 100 1013 10 N 3.7
Oggi h: 01:40 sereno Sereno 24 24 100 1013 10 N 0
Oggi h: 01:30 sereno Sereno 24 24 100 1013 10 N 1.8
Oggi h: 01:20 sereno Sereno 24 24 100 1013 10 N 1.8
Oggi h: 01:10 sereno Sereno 24 24 100 1014 10 N 1.8
Oggi h: 01:00 poco_nuvoloso Poco Nuvoloso 24 24 100 1014 10 N 0
Oggi h: 00:50 poco_nuvoloso Poco Nuvoloso 24 24 100 1014 10 N 1.8
Oggi h: 00:40 poco_nuvoloso Poco Nuvoloso 24 24 100 1014 10 N 0
Oggi h: 00:30 sereno Sereno 24 24 100 1014 10 N 1.8
Oggi h: 00:20 sereno Sereno 24 24 100 1014 10 N 1.8
Oggi h: 00:10 sereno Sereno 24 24 100 1014 10 N 1.8
Oggi h: 00:00 sereno Sereno 25 24 94 1014 10 N 1.8
Ieri h: 23:50 sereno Sereno 25 24 94 1014 10 N 3.7
Ieri h: 23:40 sereno Sereno 24 24 100 1014 10 N 3.7
Ieri h: 23:30 sereno Sereno 24 24 100 1014 10 N 1.8
Ieri h: 23:20 sereno Sereno 25 24 94 1014 10 N 1.8
Ieri h: 23:10 sereno Sereno 25 24 94 1014 10 N 3.7
Ieri h: 23:00 sereno Sereno 25 24 94 1014 10 N 5.5
Ieri h: 22:50 sereno Sereno 25 24 94 1014 10 N 3.7
Ieri h: 22:40 sereno Sereno 25 24 94 1014 10 N 3.7
Ieri h: 22:30 sereno Sereno 26 24 88 1014 10 N 1.8
Ieri h: 22:20 sereno Sereno 26 24 88 1014 10 N 1.8
Ieri h: 22:10 sereno Sereno 25 24 94 1014 10 N 1.8
Ieri h: 22:00 sereno Sereno 26 24 88 1014 10 N 3.7
Ieri h: 21:50 sereno Sereno 26 24 88 1013 10 N 1.8
Ieri h: 21:40 sereno Sereno 26 24 88 1013 10 N 1.8
Ieri h: 21:30 sereno Sereno 26 24 88 1013 10 N 1.8
Ieri h: 21:20 poco_nuvoloso Poco Nuvoloso 27 24 83 1013 10 N 1.8
Ieri h: 21:10 nuvoloso Nuvoloso 27 24 83 1013 10 N 3.7
Ieri h: 21:00 molto_nuvoloso Molto Nuvoloso 27 24 83 1012 10 N 1.8
Ieri h: 20:50 molto_nuvoloso Molto Nuvoloso 27 24 83 1012 10 N 3.7
Ieri h: 20:40 nuvoloso Nuvoloso 27 24 83 1012 10 N 3.7
Ieri h: 20:30 poco_nuvoloso Poco Nuvoloso 27 24 83 1012 10 N 3.7
Ieri h: 20:20 sereno Sereno 27 24 83 1012 10 N 5.5
Ieri h: 20:10 sereno Sereno 27 24 83 1012 10 N 5.5
Ieri h: 20:00 sereno Sereno 28 24 78 1011 10 N 5.5
Ieri h: 19:50 sereno Sereno 28 23 74 1011 10 N 3.7
Ieri h: 19:40 sereno Sereno 28 23 74 1011 10 N 3.7
Ieri h: 19:30 sereno Sereno 28 23 74 1011 10 N 1.8
Ieri h: 19:20 sereno Sereno 29 23 70 1011 10 N 1.8
Ieri h: 19:10 sereno Sereno 29 23 70 1011 10 N 5.5
Ieri h: 19:00 sereno Sereno 29 23 70 1011 10 N 3.7
Ieri h: 18:50 sereno Sereno 29 23 70 1011 10 N 5.5
Ieri h: 18:40 sereno Sereno 29 23 70 1011 10 N 5.5
Ieri h: 18:30 sereno Sereno 30 23 66 1011 10 N 5.5
Ieri h: 18:20 sereno Sereno 30 23 66 1011 10 N 5.5
Ieri h: 18:10 sereno Sereno 30 23 66 1011 10 N 5.5
Ieri h: 18:00 sereno Sereno 31 23 62 1011 10 N 5.5
Ieri h: 17:50 sereno Sereno 31 23 62 1011 10 N 5.5
Ieri h: 17:40 sereno Sereno 31 23 62 1011 10 N 5.5
Ieri h: 17:30 sereno Sereno 31 23 62 1011 10 S/SE 9.3
Ieri h: 17:20 sereno Sereno 31 23 62 1011 10 SE 7.4
Ieri h: 17:10 sereno Sereno 32 23 59 1011 10 S/SE 7.4
Ieri h: 17:00 sereno Sereno 32 23 59 1011 10 N 5.5
Ieri h: 16:50 poco_nuvoloso Poco Nuvoloso 32 23 59 1011 10 N 5.5
Ieri h: 16:40 poco_nuvoloso Poco Nuvoloso 32 23 59 1011 10 N 3.7
Ieri h: 16:30 poco_nuvoloso Poco Nuvoloso 32 23 59 1010 10 N 5.5
Ieri h: 16:20 poco_nuvoloso Poco Nuvoloso 33 24 59 1010 10 N 1.8
Ieri h: 16:10 poco_nuvoloso Poco Nuvoloso 32 23 59 1010 10 N 5.5
Ieri h: 16:00 poco_nuvoloso Poco Nuvoloso 33 23 55 1010 10 N 5.5
Ieri h: 15:50 poco_nuvoloso Poco Nuvoloso 33 23 55 1010 10 N 3.7
Ieri h: 15:40 poco_nuvoloso Poco Nuvoloso 33 22 52 1010 10 N 5.5
Previsioni Meteo per località vicine a Cheongdo Tmq-53P